星链-36224(STARLINK-36224)

导读 | 豆包AI

STARLINK-36224是美国SpaceX星链互联网星座的一颗卫星,于2025年12月17日发射入轨,归属星链低轨互联网星座组网项目,该星座旨在为全球用户提供覆盖广泛、低延迟的宽带互联网服务,这颗卫星进一步扩充了星链星座的在轨运行规模,助力星座完善全球网络覆盖与服务能力。

基本信息
目录编号:
67203
目录名称:
STARLINK-36224
国际标识:
2025-304M
轨道中心:
EARTH
卫星名称:
星链-36224
卫星全名:
星链-36224(STARLINK-36224)
卫星状态:
在轨 (已飞行87 天)
发射日期:
2025-12-17 UTC
国别 :
美国 (US)
星等 :
--
轨道信息
数据来源 国际轨道数据
星历时间: 2026-03-13T15:00:53+0800
20小时前
查看轨道信息
半长轴: 6952.655km
偏心率: 0.0003617
轨道倾角: 70.002°
近地点辐角 262.695°
升交点赤经 165.400°
平近点角 97.380°
近地点: 572.003km
远地点: 577.033km
周期: 96.158分钟
每日圈数: 14.975343
详细信息
固有亮度:
5
最大亮度:
2.5
卫星平台:
Starlink V1.0
覆盖范围:
全球
运营商:
太空探索技术公司
运营商所在国:
美国
制造商(研发单位):
太空探索技术公司
制造商所在国:
美国
使用方式:
暂无
卫星简介
Starlink 计划是 SpaceX 推出的全球卫星互联网项目,通过发射低轨道卫星,为全球尤其是偏远地区提供高速、低延迟的互联网服务。自 2019 年起,Starlink 已部署数千颗卫星,旨在缩小全球数字鸿沟,推动互联网普及。该项目还为军事、航空等行业提供通信支持,带来广泛经济效益。
2D轨道图
3D轨道图
轨道高度分析图
轨道倾角分析图
轨道综合分析图
查看轨道综合分析图